STARLINK-1161, 45068

Orbit data source: Space-Track

STARLINK-1161, 45068 is a payload satellite owned by SpaceX/Seattle (US) in LEO that was launched on Wed, 29 Jan 2020 UTC via an FALCON 9 launch vehicle from the Air Force Eastern Test Range (AFETR). Payloads include a variety of satellites, spacecraft, and rockets equipped with specific instruments for various scientific and technological missions. These include communications satellites like Starlink; space stations such as the ISS; scientific satellites like the Hubble; Earth observation satellites from companies like Planet Labs, Umbra, and HawkEye 360; GPS; miniature CubeSats for education and research; and military/defense satellites.

Loading next visibility...
STARLINK-1161 details
Identifier
45068, 2020-006AA
Orbit
LEO
Last TLE update9 hours ago
Origin
Flag of USSpaceX/Seattle (US)
ManufacturerSpaceX/Seattle
MissionPartially operational Commercial Communications
Bus & MotorSTARLINK, Unknown motor
Mass260 kg wet, ~248 kg dry
Launch date (UTC)
2020-01-29 (5 years ago)
Launch vehicle
FALCON 9
Launch site
Air Force Eastern Test Range (AFETR)
Object type
Payload
Rocket body
Debris
Shape & HBRBox + 1 Pan, 8.86 m
Radar Cross Section13.562 m², Large (>1 m²)

Expand to show TLE details & history

TLE from 9 hours ago
0 STARLINK-1161
1 45068U 20006AA  25024.12629585  .00097092  00000-0  28590-2 0  9995
2 45068  53.0343 288.3616 0005205 124.9913 235.1577 15.34263812275580
Epoch: 2025-01-24T03:01Z
Definitive object data (Epoch: 2025-01-24T03:01:51.961Z)
Latitude-0.00003°
Longitude119.20113°
Altitude466.031 km
Speed7.633 km/s
True Right ascension19h 13m 26s
True Declination0° 00' 00"
Sunlit
Object was in daylight at TLE epoch
Visualization TLE readout
Latitude-53.029°
Longitude33.56907°
Altitude484.304 km
Speed7.621 km/s
Apparent Right ascension00h 10m 11s
Apparent Declination-85° 10' 21"
Sunlit
Object is in daylight
Visualization observer readout
Local Sidereal Time13:17:55
Azimuth178.03° S
Elevation-44.518°
Doppler factor1
Orbital elements
Apogee altitude466.946 km
Perigee altitude459.824 km
Semi-major axis6,841.522 km
Eccentricity0.0005205
Inclination53.0343°
RAAN288.3616°
Arg. of periapsis124.9913°
True anomaly235.10877°
Mean anomaly235.1577°
Eccentric anomaly235.13323°
Mean motion3.83543 °/min
BSTAR0.002859
Orbital period93.86 mins
Loading maneuver chart data...
Loading historical data...
Loading historical data...
Loading historical data...
Loading historical data...
Loading historical data...
Loading historical data...
Loading historical data...

STARLINK-1161 Visibility forecast

Observer location: undefined°, undefined

Span
Click to sort rows by Start time (UTC) header in descending order
Start Az.
Max El. time (UTC)
Max El. Az.
Max El.
End time (UTC)
End Az.
5 mins2025-01-24 20:26:08.187Z240.807° WSW2025-01-24 20:28:08.187Z359.346° N43.148°2025-01-24 20:31:08.187Z46.567° ENE
5 mins2025-01-25 03:00:08.187Z309.077° NW2025-01-25 03:02:08.187Z136.362° SSE43.666°2025-01-25 03:05:08.187Z131.549° SE
|